FALCON HEAVY R/B, 61508

Orbit data source: Space-Track

FALCON HEAVY R/B, 61508 is space debris in LEO originally from a launch on Mon, 14 Oct 2024 UTC launched from the Air Force Eastern Test Range (AFETR). Debris objects in space refer to the collection of defunct objects orbiting the Earth. Examples of debris include non-operational satellites, rocket bodies, and fragments generated from explosions, collisions, or faulty payload assembly.

Not visible in the next 10 days
Identifier
61508, 2024-182B
Orbit
LEO
Last TLE update
7 months ago
Origin
Manufacturer
SpaceX
Mission
Spacecraft
Bus & Motor
F9ST2, Unknown motor
Mass
~4,000 kg wet, ~4,000 kg dry
Launch date (UTC)
2024-10-14 (7 months ago)
Launch vehicle
Unknown
Launch site
Air Force Eastern Test Range (AFETR)
Object type
Payload
Rocket body
Debris
Shape & HBR
Cyl, Unknown HBR
Radar Cross Section
49.816 m²

Expand to show TLE details & history

TLE from 7 months ago
0 FALCON HEAVY R/B
1 61508U 24182B   24288.67632810  .00000840 -26562-5  00000-0 0  9993
2 61508  31.9400  67.0176 0018900  60.7600  70.5300 16.38814738    07
Epoch: 2024-10-14T16:13Z
Definitive object data (Epoch: 2024-10-14T16:13:54.747Z)
Latitude
23.45054°
Longitude
-63.93444°
Altitude
163.258 km
Speed
7.816 km/s
True Right ascension
13h 32m 58s
True Declination
23° 18' 50"
Sunlit
Object was in daylight at TLE epoch
Visualization TLE readout
Latitude
-31.03424°
Longitude
-92.79917°
Altitude
172.816 km
Speed
7.806 km/s
Apparent Right ascension
13h 18m 15s
Apparent Declination
-38° 26' 25"
Sunlit
Object is in daylight
Visualization observer readout
Local Sidereal Time
03:15:06
Azimuth
95.701° ESE
Elevation
-67.408°
Doppler factor
1
Orbital elements
Apogee altitude
185.247 km
Perigee altitude
160.485 km
Semi-major axis
6,551.003 km
Eccentricity
0.00189
Inclination
31.94°
RAAN
67.0176°
Arg. of periapsis
60.76°
True anomaly
70.73435°
Mean anomaly
70.53°
Eccentric anomaly
70.63216°
Mean motion
4.09337 °/min
BSTAR
Unknown
Orbital period
87.95 mins
Loading maneuver chart data...
Loading SW <> Apogee altitude chart data...
Loading historical data...
Loading historical data...
Loading historical data...
Loading historical data...
Loading historical data...
Loading historical data...
Loading historical data...
Other satellites on launch #182 in the year 2024 (2024-10-14 UTC)

FALCON HEAVY R/B Visibility forecast

Observer location: undefined°, undefined°

FALCON HEAVY R/B is not visible in the next 10 days
Span
Click to sort rows by Start time (UTC) header in descending order
Start Az.
Max El. time (UTC)
Max El. Az.
Max El.
End time (UTC)
End Az.
|